Torna al catalogo

NAVSTAR 51

USA 166

AttivoNavigazioneHEO
NORAD 27663·PAYLOAD·🇺🇸 United States

Lanciato Jan 29, 2003 da Cape Canaveral Space Force Station

Loading…

Prossimi Passaggi (prossime 24 ore)

TLE

AggiornatoSource: CelesTrak SupGP

Epoca: Sep 16, 2026, 16:44 UTC

1 27663C 03005A   26259.69756944  .00000000  00000+0  00000+0 0  2593
2 27663  54.8682 211.3358 0150501  53.6318 199.7434  2.00555650    16

Traccia NAVSTAR 51 in tempo reale con AllMySat

Download on the App Store